星链-4798 (STARLINK-4798 )

导读 | 星芒AI

STARLINK-4798 是 SpaceX Starlink 项目中的一颗低轨通信卫星,属于第 21 批 Starlink 卫星发射任务(5-1 运载火箭任务)的一部分。该卫星运行在约 550 公里的高度,旨在为全球提供高速互联网服务。Starlink 卫星采用先进推进系统和激光通信技术,以提升网络效率和减少延迟。STARLINK-4798 与其他 Starlink 卫星协同工作,支持偏远地区的宽带接入,并增强全球互联网覆盖能力。

基本信息
目录编号:
53858
目录名称:
STARLINK-4798
国际标识:
2022-114AS
轨道中心:
EARTH
卫星名称:
星链-4798
卫星全名:
星链-4798 (STARLINK-4798 )
卫星状态:
在轨 (已飞行1143 天)
发射日期:
2022-09-19 UTC
国别 :
美国 (US)
星等 :
--
轨道信息
数据来源 国际轨道数据 AOE轨道数据
星历时间 2025-11-05T02:59:02+0800
5小时前
查看轨道信息
2025-11-04T09:00:00+0800
23小时前
查看轨道信息
半长轴 6917.846km 6917.843km
偏心率 0.0001542 0.0001158
轨道倾角 53.213° 53.211°
近地点辐角 88.489° 85.599°
升交点赤经 125.006° 128.368°
平近点角 271.628° 162.057°
近地点 538.644km 538.906km
远地点 540.778km 540.51km
周期 95.437分钟 95.437分钟
每日圈数 15.088514 15.088525
详细信息
固有亮度:
5
最大亮度:
2.5
卫星平台:
Starlink v1.5
覆盖范围:
全球
运营商:
太空探索技术公司
运营商所在国:
美国
制造商(研发单位):
太空探索技术公司
制造商所在国:
美国
使用方式:
暂无
卫星简介
星链(Starlink)计划是由太空探索技术公司(SpaceX)提出的一个巨型低轨卫星互联网星座项目,计划在2019年至2024年间在太空搭建由约1.2万颗卫星组成的“星链”网络,其中1584颗将部署在地球上空550千米处的近地轨道,并从2020年开始工作。该卫星仍在工作。
2D轨道图
3D轨道图
轨道高度分析图
轨道倾角分析图
轨道综合分析图
查看轨道综合分析图